Time,TemperatureF,DewpointF,PressureIn,WindDirection,WindDirectionDegrees,WindSpeedMPH,WindSpeedGustMPH,Humidity,HourlyPrecipIn,Conditions,Clouds,dailyrainin,SoftwareType,DateUTC
2013-04-06 00:12:00,70.5,22.0,29.82,WNW,284,6.0,6.0,16,0.00,,,0.00,weatherlink.com 1.10,2013-04-06 07:12:00,
2013-04-06 00:27:00,70.2,22.0,29.82,West,262,2.0,5.0,16,0.00,,,0.00,weatherlink.com 1.10,2013-04-06 07:27:00,
2013-04-06 00:57:00,67.2,25.0,29.82,WSW,249,2.0,4.0,20,0.00,,,0.00,weatherlink.com 1.10,2013-04-06 07:57:00,
2013-04-06 01:12:00,66.4,25.0,29.82,WSW,245,2.0,4.0,21,0.00,,,0.00,weatherlink.com 1.10,2013-04-06 08:12:00,
2013-04-06 01:27:00,66.5,24.0,29.82,WSW,248,0.0,4.0,20,0.00,,,0.00,weatherlink.com 1.10,2013-04-06 08:27:00,
2013-04-06 01:42:00,66.0,24.0,29.82,WNW,283,2.0,3.0,20,0.00,,,0.00,weatherlink.com 1.10,2013-04-06 08:42:00,
2013-04-06 01:57:00,66.2,24.0,29.82,WNW,287,1.0,4.0,20,0.00,,,0.00,weatherlink.com 1.10,2013-04-06 08:57:00,
2013-04-06 02:12:00,66.1,24.0,29.81,WSW,238,3.0,4.0,20,0.00,,,0.00,weatherlink.com 1.10,2013-04-06 09:12:00,
2013-04-06 02:27:00,65.8,25.0,29.81,WSW,242,3.0,4.0,21,0.00,,,0.00,weatherlink.com 1.10,2013-04-06 09:27:00,
2013-04-06 02:42:00,65.6,26.0,29.81,WSW,246,0.0,4.0,22,0.00,,,0.00,weatherlink.com 1.10,2013-04-06 09:42:00,
2013-04-06 02:57:00,66.2,26.0,29.80,West,270,1.0,4.0,22,0.00,,,0.00,weatherlink.com 1.10,2013-04-06 09:57:00,
2013-04-06 03:12:00,66.4,26.0,29.81,West,264,2.0,5.0,22,0.00,,,0.00,weatherlink.com 1.10,2013-04-06 10:12:00,
2013-04-06 03:27:00,66.2,26.0,29.80,WSW,239,2.0,4.0,22,0.00,,,0.00,weatherlink.com 1.10,2013-04-06 10:27:00,
2013-04-06 03:42:00,65.8,27.0,29.80,West,274,3.0,5.0,23,0.00,,,0.00,weatherlink.com 1.10,2013-04-06 10:42:00,
2013-04-06 03:57:00,65.5,29.0,29.80,WNW,298,0.0,3.0,25,0.00,,,0.00,weatherlink.com 1.10,2013-04-06 10:57:00,
2013-04-06 04:12:00,64.8,29.0,29.81,SW,219,0.0,1.0,26,0.00,,,0.00,weatherlink.com 1.10,2013-04-06 11:12:00,
2013-04-06 04:27:00,63.8,27.0,29.81,WSW,250,1.0,2.0,25,0.00,,,0.00,weatherlink.com 1.10,2013-04-06 11:27:00,
2013-04-06 04:42:00,64.2,28.0,29.82,West,264,1.0,3.0,26,0.00,,,0.00,weatherlink.com 1.10,2013-04-06 11:42:00,
2013-04-06 04:57:00,63.9,28.0,29.81,West,260,3.0,3.0,26,0.00,,,0.00,weatherlink.com 1.10,2013-04-06 11:57:00,
2013-04-06 05:12:00,63.9,29.0,29.82,WNW,287,1.0,3.0,27,0.00,,,0.00,weatherlink.com 1.10,2013-04-06 12:12:00,
2013-04-06 05:27:00,63.8,30.0,29.82,SW,224,0.0,3.0,28,0.00,,,0.00,weatherlink.com 1.10,2013-04-06 12:27:00,
2013-04-06 05:43:00,61.5,30.0,29.82,WSW,256,0.0,1.0,31,0.00,,,0.00,weatherlink.com 1.10,2013-04-06 12:43:00,
2013-04-06 05:58:00,62.3,30.0,29.84,WNW,291,0.0,2.0,30,0.00,,,0.00,weatherlink.com 1.10,2013-04-06 12:58:00,
2013-04-06 06:13:00,58.5,29.0,29.85,WNW,290,0.0,2.0,33,0.00,,,0.00,weatherlink.com 1.10,2013-04-06 13:13:00,
2013-04-06 06:28:00,58.9,30.0,29.85,WSW,245,0.0,2.0,33,0.00,,,0.00,weatherlink.com 1.10,2013-04-06 13:28:00,
2013-04-06 06:43:00,62.2,29.0,29.86,West,268,3.0,3.0,29,0.00,,,0.00,weatherlink.com 1.10,2013-04-06 13:43:00,
2013-04-06 06:58:00,64.8,32.0,29.86,WSW,239,0.0,2.0,29,0.00,,,0.00,weatherlink.com 1.10,2013-04-06 13:58:00,
2013-04-06 07:13:00,66.6,32.0,29.87,SW,236,0.0,1.0,28,0.00,,,0.00,weatherlink.com 1.10,2013-04-06 14:13:00,
2013-04-06 07:28:00,67.5,31.0,29.87,East,100,0.0,1.0,26,0.00,,,0.00,weatherlink.com 1.10,2013-04-06 14:28:00,
2013-04-06 07:43:00,68.8,32.0,29.88,ESE,103,0.0,1.0,26,0.00,,,0.00,weatherlink.com 1.10,2013-04-06 14:43:00,
2013-04-06 07:58:00,70.3,32.0,29.88,SE,134,0.0,1.0,24,0.00,,,0.00,weatherlink.com 1.10,2013-04-06 14:58:00,
2013-04-06 08:13:00,71.3,33.0,29.88,East,90,0.0,1.0,24,0.00,,,0.00,weatherlink.com 1.10,2013-04-06 15:13:00,
2013-04-06 08:28:00,71.6,34.0,29.87,East,94,0.0,1.0,25,0.00,,,0.00,weatherlink.com 1.10,2013-04-06 15:28:00,
2013-04-06 08:43:00,72.0,33.0,29.87,East,86,0.0,3.0,24,0.00,,,0.00,weatherlink.com 1.10,2013-04-06 15:43:00,
2013-04-06 08:58:00,73.3,33.0,29.87,South,171,0.0,3.0,23,0.00,,,0.00,weatherlink.com 1.10,2013-04-06 15:58:00,
2013-04-06 09:13:00,73.3,33.0,29.87,ESE,117,2.0,5.0,23,0.00,,,0.00,weatherlink.com 1.10,2013-04-06 16:13:00,
2013-04-06 09:28:00,73.0,33.0,29.86,East,96,5.0,8.0,23,0.00,,,0.00,weatherlink.com 1.10,2013-04-06 16:28:00,
2013-04-06 09:43:00,73.4,33.0,29.86,SSW,201,3.0,6.0,23,0.00,,,0.00,weatherlink.com 1.10,2013-04-06 16:43:00,
2013-04-06 09:58:00,74.8,33.0,29.86,East,79,4.0,6.0,22,0.00,,,0.00,weatherlink.com 1.10,2013-04-06 16:58:00,
2013-04-06 10:13:00,74.0,33.0,29.87,ESE,118,6.0,7.0,22,0.00,,,0.00,weatherlink.com 1.10,2013-04-06 17:13:00,
2013-04-06 10:28:00,75.3,33.0,29.87,SE,134,4.0,8.0,21,0.00,,,0.00,weatherlink.com 1.10,2013-04-06 17:28:00,
2013-04-06 10:43:00,75.8,33.0,29.86,NNW,336,1.0,6.0,21,0.00,,,0.00,weatherlink.com 1.10,2013-04-06 17:43:00,
2013-04-06 10:58:00,75.5,32.0,29.86,South,186,4.0,8.0,20,0.00,,,0.00,weatherlink.com 1.10,2013-04-06 17:58:00,
2013-04-06 11:13:00,77.2,33.0,29.85,South,179,1.0,7.0,20,0.00,,,0.00,weatherlink.com 1.10,2013-04-06 18:13:00,
2013-04-06 11:28:00,77.2,32.0,29.84,SSW,194,1.0,7.0,19,0.00,,,0.00,weatherlink.com 1.10,2013-04-06 18:28:00,
2013-04-06 11:43:00,78.8,30.0,29.83,SE,129,3.0,12.0,17,0.00,,,0.00,weatherlink.com 1.10,2013-04-06 18:43:00,
2013-04-06 11:58:00,77.6,28.0,29.83,SSE,156,7.0,9.0,16,0.00,,,0.00,weatherlink.com 1.10,2013-04-06 18:58:00,
2013-04-06 12:13:00,79.0,26.0,29.83,SW,219,6.0,9.0,14,0.00,,,0.00,weatherlink.com 1.10,2013-04-06 19:13:00,
2013-04-06 12:28:00,78.8,27.0,29.82,WNW,293,3.0,9.0,15,0.00,,,0.00,weatherlink.com 1.10,2013-04-06 19:28:00,
2013-04-06 12:43:00,79.4,28.0,29.82,WSW,243,7.0,10.0,15,0.00,,,0.00,weatherlink.com 1.10,2013-04-06 19:43:00,
2013-04-06 12:58:00,80.3,27.0,29.81,South,176,7.0,11.0,14,0.00,,,0.00,weatherlink.com 1.10,2013-04-06 19:58:00,
2013-04-06 13:59:00,81.5,28.0,29.77,SSW,203,1.0,9.0,14,0.00,,,0.00,weatherlink.com 1.10,2013-04-06 20:59:00,
2013-04-06 14:14:00,82.6,27.0,29.77,SE,131,2.0,6.0,13,0.00,,,0.00,weatherlink.com 1.10,2013-04-06 21:14:00,
2013-04-06 14:29:00,83.2,27.0,29.76,WNW,288,0.0,10.0,13,0.00,,,0.00,weatherlink.com 1.10,2013-04-06 21:29:00,
2013-04-06 14:59:00,83.6,26.0,29.75,WNW,288,4.0,11.0,12,0.00,,,0.00,weatherlink.com 1.10,2013-04-06 21:59:00,
2013-04-06 15:29:00,83.4,26.0,29.74,SW,215,1.0,11.0,12,0.00,,,0.00,weatherlink.com 1.10,2013-04-06 22:29:00,
2013-04-06 15:44:00,84.4,28.0,29.73,SW,231,3.0,14.0,13,0.00,,,0.00,weatherlink.com 1.10,2013-04-06 22:44:00,
2013-04-06 15:59:00,84.4,26.0,29.73,SE,125,2.0,13.0,12,0.00,,,0.00,weatherlink.com 1.10,2013-04-06 22:59:00,
2013-04-06 16:14:00,84.6,27.0,29.73,WNW,295,2.0,7.0,12,0.00,,,0.00,weatherlink.com 1.10,2013-04-06 23:14:00,
2013-04-06 16:29:00,84.8,27.0,29.73,WSW,253,3.0,8.0,12,0.00,,,0.00,weatherlink.com 1.10,2013-04-06 23:29:00,
2013-04-06 16:44:00,85.4,29.0,29.72,WSW,256,0.0,7.0,13,0.00,,,0.00,weatherlink.com 1.10,2013-04-06 23:44:00,
2013-04-06 16:59:00,85.2,29.0,29.72,SE,143,0.0,7.0,13,0.00,,,0.00,weatherlink.com 1.10,2013-04-06 23:59:00,
2013-04-06 17:14:00,84.3,30.0,29.72,WNW,291,3.0,7.0,14,0.00,,,0.00,weatherlink.com 1.10,2013-04-07 00:14:00,
2013-04-06 17:29:00,83.8,30.0,29.72,West,269,3.0,9.0,14,0.00,,,0.00,weatherlink.com 1.10,2013-04-07 00:29:00,
2013-04-06 17:44:00,82.8,29.0,29.72,WNW,302,3.0,10.0,14,0.00,,,0.00,weatherlink.com 1.10,2013-04-07 00:44:00,
2013-04-06 17:59:00,82.5,30.0,29.72,NW,308,2.0,7.0,15,0.00,,,0.00,weatherlink.com 1.10,2013-04-07 00:59:00,
2013-04-06 18:29:00,80.0,31.0,29.72,WSW,246,0.0,8.0,17,0.00,,,0.00,weatherlink.com 1.10,2013-04-07 01:29:00,
2013-04-06 18:44:00,79.4,31.0,29.72,WNW,293,2.0,8.0,17,0.00,,,0.00,weatherlink.com 1.10,2013-04-07 01:44:00,
2013-04-06 18:59:00,78.9,30.0,29.72,West,259,2.0,4.0,17,0.00,,,0.00,weatherlink.com 1.10,2013-04-07 01:59:00,
2013-04-06 19:14:00,78.3,31.0,29.72,WSW,245,2.0,4.0,18,0.00,,,0.00,weatherlink.com 1.10,2013-04-07 02:14:00,
2013-04-06 19:29:00,78.1,31.0,29.73,WNW,291,4.0,6.0,18,0.00,,,0.00,weatherlink.com 1.10,2013-04-07 02:29:00,
2013-04-06 19:44:00,77.4,31.0,29.73,WNW,285,5.0,6.0,18,0.00,,,0.00,weatherlink.com 1.10,2013-04-07 02:44:00,
2013-04-06 19:59:00,77.4,31.0,29.73,West,271,3.0,5.0,18,0.00,,,0.00,weatherlink.com 1.10,2013-04-07 02:59:00,
2013-04-06 20:14:00,77.4,31.0,29.74,SW,224,9.0,9.0,18,0.00,,,0.00,weatherlink.com 1.10,2013-04-07 03:14:00,
2013-04-06 20:29:00,76.8,30.0,29.74,WNW,295,4.0,6.0,18,0.00,,,0.00,weatherlink.com 1.10,2013-04-07 03:29:00,
2013-04-06 20:44:00,76.6,30.0,29.75,NW,304,1.0,10.0,18,0.00,,,0.00,weatherlink.com 1.10,2013-04-07 03:44:00,
2013-04-06 20:59:00,75.9,31.0,29.76,NW,304,1.0,9.0,19,0.00,,,0.00,weatherlink.com 1.10,2013-04-07 03:59:00,
2013-04-06 21:14:00,73.8,31.0,29.76,West,280,3.0,7.0,21,0.00,,,0.00,weatherlink.com 1.10,2013-04-07 04:14:00,
2013-04-06 21:29:00,72.5,33.0,29.77,SSW,205,3.0,9.0,23,0.00,,,0.00,weatherlink.com 1.10,2013-04-07 04:29:00,
2013-04-06 21:44:00,72.9,34.0,29.77,West,262,7.0,15.0,24,0.00,,,0.00,weatherlink.com 1.10,2013-04-07 04:44:00,
2013-04-06 21:59:00,72.9,34.0,29.77,SW,231,9.0,15.0,24,0.00,,,0.00,weatherlink.com 1.10,2013-04-07 04:59:00,
2013-04-06 22:14:00,72.8,35.0,29.77,WSW,246,12.0,13.0,25,0.00,,,0.00,weatherlink.com 1.10,2013-04-07 05:14:00,
2013-04-06 22:29:00,73.0,34.0,29.77,West,264,5.0,13.0,24,0.00,,,0.00,weatherlink.com 1.10,2013-04-07 05:29:00,
2013-04-06 22:59:00,73.0,34.0,29.77,West,270,7.0,11.0,24,0.00,,,0.00,weatherlink.com 1.10,2013-04-07 05:59:00,